[[{"header":{"parameterUnit":"m.s-1","parameterCategory":1,"la1":30.2991,"la2":30.254,"lo1":-89.0895,"lo2":-89.0444,"dy":0.0017,"dx":0.0017,"nx":28,"ny":28,"refTime":"2025-09-03T09:00:00:Z","depth":0,"parameterNumber":2,"parameterNumberName":"U-component_of_WINDS"},"data":[0,0,0,0,0,0,0,0,0,0,0,0,0,0,0,0,0,0,0,0,0,0,0,0,0,0,0,0,0,0,0,0,0,0,0,0,0,0,0,0,0,0,0,0,0,0,0,0,0,0,0,0,0,0,0,0,0,0,-2.5253,-2.5253,0,-2.5284,-2.5284,-2.5284,-2.5234,-2.5233,-2.5231,-2.5229,-2.5261,-2.5263,-2.5265,0,0,0,0,0,0,0,0,0,0,0,0,0,-2.5151,-2.5153,-2.5253,-2.5253,-2.5254,-2.5284,-2.5284,-2.5284,-2.5235,-2.5232,-2.523,-2.5228,-2.526,-2.5263,-2.5266,0,0,0,0,0,0,0,0,0,0,0,0,0,-2.519,-2.5154,-2.5253,-2.5232,-2.5231,-2.5283,-2.5284,-2.5284,-2.5235,-2.5232,-2.523,-2.5227,-2.5259,-2.5262,-2.5266,-2.534,0,0,-2.5277,-2.5279,0,0,0,0,0,0,0,0,-2.5188,-2.5194,-2.5235,-2.5234,-2.5232,-2.5252,-2.526,-2.5303,-2.5236,-2.5233,-2.5229,-2.5226,-2.526,-2.5263,-2.5275,-2.5341,-2.5343,-2.5277,-2.528,-2.5281,-2.5282,0,0,0,0,0,0,0,-2.5185,-2.5192,-2.5265,-2.5236,-2.5234,-2.5222,-2.5224,-2.5268,-2.5261,-2.5233,-2.523,-2.5234,-2.5259,-2.5271,-2.5275,-2.5343,-2.5277,-2.5281,-2.5283,-2.5284,-2.5472,-2.5475,0,0,0,0,0,0,-2.5185,-2.519,-2.5264,-2.5266,-2.5203,-2.5226,-2.5229,-2.5249,-2.526,-2.5259,-2.5236,-2.5232,-2.5266,-2.5271,-2.5276,-2.5364,-2.5281,-2.5285,-2.5287,-2.547,-2.5473,-2.5476,0,0,0,0,0,0,-2.5183,-2.5192,-2.5263,-2.5227,-2.5235,-2.523,-2.5253,-2.5251,-2.5263,-2.5262,-2.5261,-2.5251,-2.5264,-2.5271,-2.5324,-2.5364,-2.5286,-2.529,-2.5466,-2.5471,-2.5475,-2.554,0,0,0,0,0,0,-2.518,-2.5192,-2.522,-2.5228,-2.5237,-2.5311,-2.5255,-2.5253,-2.527,-2.5264,-2.5275,-2.5275,-2.5263,-2.5319,-2.5328,-2.5368,-2.5292,-2.5463,-2.5468,-2.5473,-2.5534,-2.5546,-2.5555,0,0,0,0,0,-2.5177,-2.5237,-2.5221,-2.5231,-2.5272,-2.5313,-2.5319,-2.5304,-2.5273,-2.5301,-2.5301,-2.5274,-2.5358,-2.5325,-2.5335,-2.5376,-2.546,-2.5467,-2.5473,-2.5529,-2.5543,-2.5555,0,0,0,0,0,0,-2.5233,-2.5237,-2.5221,-2.5285,-2.5299,-2.5305,-2.534,-2.5319,-2.5343,-2.5336,-2.5317,-2.532,-2.5378,-2.5382,-2.5345,-2.5448,-2.5404,-2.5413,-2.5444,-2.5457,-2.5468,-2.5465,-2.5295,0,0,0,0,0,-2.5253,-2.5286,-2.5288,-2.5344,-2.5352,-2.5345,-2.5362,-2.535,-2.5364,-2.537,-2.5373,-2.5388,-2.5417,-2.5437,-2.5465,-2.5534,-2.5536,-2.5567,-2.5578,-2.5587,-2.5595,-2.5632,-2.5646,-2.5497,-2.5497,-2.5497,0,0,-2.5294,-2.53,-2.5322,-2.5356,-2.5365,-2.54,-2.535,-2.5389,-2.5415,-2.5375,-2.5426,-2.543,-2.5445,-2.5507,-2.5534,-2.5512,-2.5636,-2.5595,-2.5602,-2.5605,-2.564,-2.5654,-2.5667,-2.5501,-2.55,-2.55,0,0,-2.5387,-2.5395,-2.5443,-2.5454,-2.5469,-2.5464,-2.5476,-2.5485,-2.5485,-2.5536,-2.5508,-2.5538,-2.5589,-2.5601,-2.5614,-2.5713,-2.5689,-2.5722,-2.5778,-2.5815,-2.5827,-2.5837,-2.5873,-2.5886,-2.573,-2.573,-2.573,0,-2.5436,-2.5487,-2.547,-2.5511,-2.5527,-2.5493,-2.5542,-2.5553,-2.5577,-2.5589,-2.5563,-2.5628,-2.5635,-2.57,-2.5724,-2.5735,-2.5748,-2.5721,-2.5827,-2.5837,-2.5846,-2.588,-2.5893,-2.5734,-2.5733,-2.5733,-2.5732,0,-2.5547,-2.5583,-2.562,-2.5644,-2.5664,-2.5709,-2.5699,-2.5721,-2.5707,-2.5705,-2.5757,-2.5765,-2.5794,-2.5808,-2.5795,-2.5871,-2.5857,-2.583,-2.5785,-2.5865,-2.5896,-2.5909,-2.5739,-2.5738,-2.5737,-2.5736,0,0,-2.5676,-2.569,-2.5704,-2.5715,-2.573,-2.5757,-2.58,-2.5828,-2.5848,-2.5865,-2.5902,-2.5946,-2.5921,-2.5936,-2.5923,-2.5956,-2.6034,-2.5924,-2.5924,-2.5945,-2.6119,-2.614,-2.6155,-2.6018,-2.6021,-2.6023,-2.6118,0,-2.5768,-2.5843,-2.583,-2.5903,-2.5936,-2.5905,-2.5943,-2.5956,-2.5955,-2.5983,-2.5982,-2.6014,-2.5978,-2.5987,-2.6018,-2.6018,-2.6069,-2.6011,-2.6052,-2.6054,-2.605,-2.6172,-2.6194,-2.6283,-2.613,-2.6132,-2.6134,0,-2.5887,-2.5909,-2.5985,-2.5995,-2.6009,-2.6043,-2.6068,-2.6095,-2.611,-2.6107,-2.6124,-2.6106,-2.6149,-2.6103,-2.6163,-2.6124,-2.614,-2.6143,-2.6146,-2.615,-2.6099,-2.6179,-2.6311,-2.6325,-2.6153,-2.6151,-2.615,0,-2.5973,-2.6022,-2.6075,-2.6085,-2.6098,-2.6123,-2.6129,-2.6141,-2.6159,-2.6181,-2.6192,-2.6219,-2.6234,-2.6255,-2.6244,-2.6212,-2.6306,-2.626,-2.6305,-2.6306,-2.6327,-2.6325,-2.6464,-2.6337,-2.6336,-2.6336,-2.6336,0,-2.6078,-2.6127,-2.6114,-2.6146,-2.6199,-2.6183,-2.6236,-2.6239,-2.625,-2.6282,-2.6257,-2.6288,-2.6272,-2.6302,-2.6294,-2.6345,-2.6351,-2.635,-2.6348,-2.6353,-2.6353,-2.6363,-2.6357,-2.634,-2.6339,-2.6338,-2.6338,0,-2.6184,-2.6178,-2.6233,-2.6241,-2.6244,-2.6283,-2.6289,-2.6319,-2.6317,-2.6358,-2.6367,-2.6362,-2.6396,-2.6388,-2.6425,-2.6419,-2.6484,-2.6473,-2.6479,-2.6477,-2.6523,-2.6519,-2.6673,-2.6693,-2.6552,-2.6554,-2.6555,0,-2.6252,-2.6288,-2.63,-2.632,-2.6329,-2.6361,-2.638,-2.6365,-2.6386,-2.6405,-2.6433,-2.6465,-2.6489,-2.6545,-2.6545,-2.6573,-2.6563,-2.6615,-2.6567,-2.6571,-2.6564,-2.6563,-2.6566,-2.6625,-2.6627,-2.6628,-2.6629,0,-2.6373,-2.6368,-2.6395,-2.6422,-2.6445,-2.6465,-2.6483,-2.6501,-2.6488,-2.6512,-2.6547,-2.6566,-2.6604,-2.6635,-2.6661,-2.6668,-2.6647,-2.6644,-2.6656,-2.6662,-2.6664,-2.6664,-2.6505,-2.6641,-2.664,-2.6639,-2.6638,-2.6638,-2.6462,-2.6493,-2.6507,-2.6538,-2.655,-2.6568,-2.6597,-2.6598,-2.6626,-2.6656,-2.6646,-2.6685,-2.6699,-2.6732,-2.6742,-2.6773,-2.6753,-2.6771,-2.6775,-2.678,-2.6786,-2.6659,-2.6778,-2.6777,-2.6777,-2.6777,-2.6776,0,-2.6582,-2.6589,-2.6618,-2.6645,-2.667,-2.6648,-2.6666,-2.6689,-2.6724,-2.6739,-2.6764,-2.6803,-2.6834,-2.6837,-2.6866,-2.6891,-2.6882,-2.6899,-2.6897,-2.6899,-2.6801,-2.6788,-2.6905,-2.6905,-2.6905,-2.6905,-2.6905,-2.6905,-2.6647,-2.6699,-2.6696,-2.6753,-2.676,-2.6799,-2.6811,-2.6827,-2.6839,-2.6885,-2.6911,-2.6912,-2.6923,-2.6952,-2.698,-2.698,-2.6992,-2.7013,-2.701,-2.6918,-2.6906,-2.6893,-2.6881,-2.7016,-2.7016,-2.7104,-2.7105,-2.7106]},{"header":{"parameterUnit":"m.s-1","parameterCategory":1,"la1":30.2991,"la2":30.254,"lo1":-89.0895,"lo2":-89.0444,"dy":0.0017,"dx":0.0017,"nx":28,"ny":28,"refTime":"2025-09-03T09:00:00:Z","depth":0,"parameterNumber":3,"parameterNumberName":"V-component_of_WINDS"},"data":[0,0,0,0,0,0,0,0,0,0,0,0,0,0,0,0,0,0,0,0,0,0,0,0,0,0,0,0,0,0,0,0,0,0,0,0,0,0,0,0,0,0,0,0,0,0,0,0,0,0,0,0,0,0,0,0,0,0,-1.3519,-1.3519,0,-1.3464,-1.3463,-1.3462,-1.3396,-1.3395,-1.3394,-1.3393,-1.3335,-1.3334,-1.3334,0,0,0,0,0,0,0,0,0,0,0,0,0,-1.3566,-1.3566,-1.3519,-1.3519,-1.3518,-1.3464,-1.3463,-1.3462,-1.3396,-1.3395,-1.3394,-1.3393,-1.3335,-1.3334,-1.3334,0,0,0,0,0,0,0,0,0,0,0,0,0,-1.3532,-1.3566,-1.3519,-1.3479,-1.3474,-1.3464,-1.3463,-1.3462,-1.3397,-1.3395,-1.3394,-1.3392,-1.3335,-1.3334,-1.3333,-1.3358,0,0,-1.3331,-1.333,0,0,0,0,0,0,0,0,-1.3534,-1.353,-1.3485,-1.3481,-1.3477,-1.3435,-1.3458,-1.3427,-1.3397,-1.3426,-1.3393,-1.3391,-1.3369,-1.3366,-1.3358,-1.3356,-1.3353,-1.3331,-1.333,-1.333,-1.3329,0,0,0,0,0,0,0,-1.3536,-1.3532,-1.3497,-1.3485,-1.3479,-1.3462,-1.3456,-1.3452,-1.3407,-1.3423,-1.3419,-1.3413,-1.3367,-1.336,-1.3357,-1.3352,-1.3331,-1.333,-1.3329,-1.3329,-1.3366,-1.3367,0,0,0,0,0,0,-1.3545,-1.3535,-1.3499,-1.3496,-1.3502,-1.3463,-1.3455,-1.345,-1.3407,-1.3399,-1.3414,-1.341,-1.3362,-1.3358,-1.3354,-1.338,-1.333,-1.3329,-1.3328,-1.3364,-1.3366,-1.3368,0,0,0,0,0,0,-1.3547,-1.3543,-1.3501,-1.3514,-1.3507,-1.3464,-1.3458,-1.345,-1.3443,-1.34,-1.3391,-1.3415,-1.336,-1.3356,-1.3358,-1.3377,-1.3328,-1.3328,-1.3363,-1.3365,-1.3367,-1.3433,0,0,0,0,0,0,-1.3548,-1.3544,-1.3553,-1.3515,-1.3507,-1.3507,-1.3459,-1.345,-1.3441,-1.3435,-1.3399,-1.3391,-1.3359,-1.3359,-1.3357,-1.3375,-1.3327,-1.3361,-1.3364,-1.3366,-1.3429,-1.3437,-1.3444,0,0,0,0,0,-1.355,-1.3574,-1.3554,-1.355,-1.3518,-1.3508,-1.3503,-1.3466,-1.3443,-1.3452,-1.3424,-1.3392,-1.3375,-1.336,-1.3357,-1.3375,-1.3359,-1.3363,-1.3366,-1.3425,-1.3435,-1.3444,0,0,0,0,0,0,-1.3616,-1.3568,-1.3546,-1.3557,-1.3537,-1.3497,-1.3507,-1.3478,-1.3464,-1.3459,-1.3413,-1.3405,-1.3413,-1.3394,-1.3378,-1.3396,-1.3362,-1.3365,-1.3409,-1.3418,-1.3425,-1.343,-1.3326,0,0,0,0,0,-1.3631,-1.3628,-1.3586,-1.36,-1.3591,-1.3551,-1.3545,-1.3518,-1.3495,-1.3486,-1.3459,-1.3437,-1.3427,-1.3421,-1.3409,-1.3425,-1.3416,-1.3436,-1.3444,-1.345,-1.3453,-1.346,-1.3468,-1.3379,-1.3379,-1.3379,0,0,-1.3664,-1.3638,-1.3638,-1.3613,-1.3594,-1.3591,-1.3544,-1.3543,-1.354,-1.3486,-1.3486,-1.3465,-1.3438,-1.3447,-1.345,-1.3432,-1.3476,-1.3455,-1.346,-1.346,-1.3464,-1.3472,-1.348,-1.3381,-1.3381,-1.3381,0,0,-1.3722,-1.3702,-1.3711,-1.3693,-1.3665,-1.3638,-1.3641,-1.3604,-1.3588,-1.3588,-1.3548,-1.3543,-1.3526,-1.3508,-1.3497,-1.3547,-1.3517,-1.3544,-1.3585,-1.3592,-1.3599,-1.3605,-1.3622,-1.3629,-1.3547,-1.3548,-1.3548,0,-1.3766,-1.376,-1.372,-1.3721,-1.3711,-1.3662,-1.3671,-1.3655,-1.3625,-1.3619,-1.3599,-1.3577,-1.3555,-1.3559,-1.3571,-1.3563,-1.3564,-1.3549,-1.3601,-1.3607,-1.3611,-1.3628,-1.3635,-1.3551,-1.3551,-1.355,-1.355,0,-1.3815,-1.3812,-1.3823,-1.3795,-1.3786,-1.3791,-1.3751,-1.3747,-1.372,-1.3695,-1.3695,-1.3667,-1.3648,-1.3647,-1.3621,-1.3647,-1.3636,-1.361,-1.3575,-1.3624,-1.3639,-1.3645,-1.3556,-1.3555,-1.3554,-1.3553,0,0,-1.3914,-1.3863,-1.3868,-1.3855,-1.382,-1.3816,-1.3818,-1.38,-1.3797,-1.3778,-1.3778,-1.3765,-1.3739,-1.3727,-1.3698,-1.3704,-1.3745,-1.3676,-1.3674,-1.369,-1.3771,-1.3792,-1.38,-1.3724,-1.3725,-1.3726,-1.3774,0,-1.3966,-1.3968,-1.3931,-1.3943,-1.3939,-1.3892,-1.3894,-1.3872,-1.3848,-1.384,-1.3813,-1.3805,-1.3772,-1.3764,-1.3768,-1.3739,-1.3761,-1.3735,-1.3724,-1.3724,-1.3733,-1.3808,-1.383,-1.3876,-1.3779,-1.378,-1.3781,0,-1.4027,-1.4011,-1.4022,-1.3986,-1.3983,-1.3986,-1.3966,-1.3959,-1.3934,-1.3916,-1.3901,-1.3869,-1.3867,-1.3834,-1.3831,-1.3815,-1.3808,-1.3793,-1.3794,-1.3792,-1.3756,-1.3808,-1.389,-1.3897,-1.3789,-1.3788,-1.3788,0,-1.4098,-1.4079,-1.4083,-1.4073,-1.4031,-1.4034,-1.4017,-1.3989,-1.3981,-1.3963,-1.3957,-1.3939,-1.393,-1.3917,-1.388,-1.3859,-1.3881,-1.3845,-1.3866,-1.3867,-1.3873,-1.3873,-1.3956,-1.3868,-1.3868,-1.3868,-1.3868,0,-1.416,-1.4169,-1.4115,-1.4117,-1.4126,-1.4083,-1.4092,-1.407,-1.4046,-1.4043,-1.4001,-1.3998,-1.395,-1.3942,-1.3913,-1.3915,-1.391,-1.3896,-1.3888,-1.39,-1.3902,-1.3895,-1.3891,-1.387,-1.3869,-1.3869,-1.3869,0,-1.4241,-1.4205,-1.4207,-1.4167,-1.4157,-1.4165,-1.413,-1.413,-1.4104,-1.41,-1.4097,-1.4055,-1.4043,-1.4005,-1.3983,-1.3964,-1.3975,-1.396,-1.3984,-1.3979,-1.4002,-1.4001,-1.4083,-1.4092,-1.3999,-1.4,-1.4001,0,-1.4283,-1.4289,-1.4249,-1.4245,-1.4229,-1.4222,-1.4213,-1.4171,-1.4163,-1.4133,-1.4137,-1.4122,-1.4108,-1.4092,-1.4059,-1.4042,-1.4026,-1.4056,-1.4023,-1.4035,-1.4027,-1.4027,-1.4027,-1.4064,-1.4065,-1.4066,-1.4067,0,-1.4362,-1.4343,-1.4333,-1.4315,-1.4306,-1.429,-1.4272,-1.427,-1.4223,-1.4216,-1.4204,-1.4193,-1.4171,-1.4157,-1.4134,-1.4115,-1.4083,-1.4077,-1.4081,-1.4094,-1.4108,-1.41,-1.4004,-1.4076,-1.4075,-1.4074,-1.4074,-1.4073,-1.4424,-1.4427,-1.44,-1.4389,-1.4371,-1.4354,-1.4353,-1.4326,-1.4315,-1.4295,-1.427,-1.4261,-1.4233,-1.42,-1.4183,-1.4175,-1.4157,-1.4163,-1.4165,-1.4167,-1.4173,-1.4109,-1.4171,-1.417,-1.417,-1.417,-1.4169,0,-1.4501,-1.4481,-1.4471,-1.4447,-1.4438,-1.4409,-1.4387,-1.4381,-1.4374,-1.4351,-1.4338,-1.4324,-1.431,-1.4275,-1.4257,-1.4257,-1.4242,-1.4254,-1.4253,-1.4249,-1.4189,-1.4188,-1.4266,-1.4266,-1.4266,-1.4266,-1.4266,-1.4266,-1.454,-1.4543,-1.4522,-1.4515,-1.4495,-1.4486,-1.4476,-1.446,-1.4442,-1.4428,-1.4416,-1.4394,-1.4366,-1.4345,-1.4331,-1.432,-1.4316,-1.4333,-1.4318,-1.4263,-1.4254,-1.4245,-1.4243,-1.4332,-1.4332,-1.4379,-1.4379,-1.438]}]]